• In Hungary
  • List of Countries
  • For 7 days
  • Water Temperature
  • Satellite Maps
  • Weather Map
  • News
  • Weather Widgets
  • user-avatar
    Login

    Hourly Weather Podsarnie

    Today, 22 May, Tuesday

    Time Temperature Precipitation Wind Pressure Humidity
    00:00 +9°C° 0 mm 1 mps 705 mmHg 92%
    01:00 +9°C° 0 mm 1 mps 705 mmHg 92%
    02:00 +9°C° 0 mm 1 mps 705 mmHg 92%
    03:00 +9°C° 0 mm 1 mps 705 mmHg 92%
    04:00 +8°C° 0 mm 1 mps 705 mmHg 92%
    05:00 +11°C° 0 mm 1 mps 705 mmHg 85%
    06:00 +13°C° 0 mm 1 mps 706 mmHg 78%
    07:00 +15°C° 0 mm 1 mps 706 mmHg 72%
    08:00 +18°C° 0 mm 1 mps 706 mmHg 64%
    09:00 +20°C° 0 mm 1 mps 707 mmHg 57%
    10:00 +21°C° 0 mm 1 mps 707 mmHg 49%
    11:00 +22°C° 0 mm 1 mps 707 mmHg 48%
    12:00 +22°C° 0 mm 1 mps 707 mmHg 47%
    13:00 +23°C° 0 mm 1 mps 707 mmHg 46%
    14:00 +22°C° 0.1 mm 1 mps 707 mmHg 50%
    15:00 +22°C° 0.1 mm 1 mps 706 mmHg 55%
    16:00 +22°C° 0.1 mm 1 mps 706 mmHg 60%
    17:00 +20°C° 0.2 mm 1 mps 706 mmHg 66%
    18:00 +18°C° 0.2 mm 1 mps 706 mmHg 73%
    19:00 +16°C° 0.2 mm 1 mps 706 mmHg 80%
    20:00 +15°C° 0 mm 1 mps 706 mmHg 83%
    21:00 +14°C° 0 mm 1 mps 706 mmHg 86%
    22:00 +13°C° 0 mm 1 mps 706 mmHg 89%
    23:00 +13°C° 0.1 mm 1 mps 706 mmHg 89%

    Tomorrow, 23 May, Wednesday

    Time Temperature Precipitation Wind Pressure Humidity
    00:00 +13°C° 0.1 mm 1 mps 706 mmHg 89%
    01:00 +13°C° 0.1 mm 1 mps 706 mmHg 90%
    02:00 +13°C° 0.2 mm 1 mps 706 mmHg 90%
    03:00 +13°C° 0.2 mm 1 mps 706 mmHg 90%
    04:00 +13°C° 0.2 mm 1 mps 706 mmHg 90%
    05:00 +14°C° 0.2 mm 1 mps 707 mmHg 88%
    06:00 +15°C° 0.2 mm 1 mps 707 mmHg 86%
    07:00 +16°C° 0.2 mm 1 mps 708 mmHg 85%
    08:00 +19°C° 0.5 mm 1 mps 708 mmHg 81%
    09:00 +20°C° 0.5 mm 1 mps 708 mmHg 77%
    10:00 +21°C° 0.5 mm 1 mps 709 mmHg 73%
    11:00 +20°C° 0.9 mm 2 mps 709 mmHg 72%
    12:00 +21°C° 0.9 mm 2 mps 709 mmHg 71%
    13:00 +21°C° 0.9 mm 2 mps 709 mmHg 70%
    14:00 +21°C° 0.6 mm 2 mps 708 mmHg 71%
    15:00 +21°C° 0.6 mm 2 mps 708 mmHg 71%
    16:00 +21°C° 0.6 mm 2 mps 708 mmHg 72%
    17:00 +19°C° 0.2 mm 2 mps 708 mmHg 78%
    18:00 +19°C° 0.2 mm 1 mps 708 mmHg 83%
    19:00 +18°C° 0.2 mm 1 mps 708 mmHg 89%
    20:00 +16°C° 0.2 mm 1 mps 708 mmHg 91%
    21:00 +15°C° 0.2 mm 1 mps 708 mmHg 92%
    22:00 +14°C° 0.2 mm 1 mps 708 mmHg 94%
    23:00 +14°C° 0 mm 1 mps 708 mmHg 94%

    Day after tomorrow, 24 May, Thursday

    Time Temperature Precipitation Wind Pressure Humidity
    00:00 +14°C° 0 mm 1 mps 708 mmHg 95%
    01:00 +14°C° 0 mm 1 mps 708 mmHg 95%
    02:00 +13°C° 0 mm 1 mps 708 mmHg 95%
    03:00 +13°C° 0 mm 1 mps 708 mmHg 96%
    04:00 +13°C° 0 mm 1 mps 708 mmHg 96%
    05:00 +14°C° 0 mm 2 mps 708 mmHg 93%
    06:00 +15°C° 0 mm 2 mps 709 mmHg 91%
    07:00 +16°C° 0 mm 2 mps 709 mmHg 88%
    08:00 +17°C° 0.1 mm 2 mps 709 mmHg 83%
    09:00 +18°C° 0.1 mm 3 mps 709 mmHg 78%
    10:00 +19°C° 0.1 mm 3 mps 710 mmHg 73%
    11:00 +20°C° 0.5 mm 4 mps 709 mmHg 72%
    12:00 +20°C° 0.5 mm 4 mps 709 mmHg 72%
    13:00 +20°C° 0.5 mm 4 mps 709 mmHg 71%
    14:00 +20°C° 0.3 mm 4 mps 709 mmHg 71%
    15:00 +20°C° 0.3 mm 4 mps 709 mmHg 71%
    16:00 +20°C° 0.3 mm 4 mps 709 mmHg 71%
    17:00 +19°C° 0 mm 3 mps 709 mmHg 76%
    18:00 +17°C° 0 mm 3 mps 708 mmHg 80%
    19:00 +16°C° 0 mm 2 mps 708 mmHg 85%
    20:00 +15°C° 0 mm 2 mps 708 mmHg 87%
    21:00 +14°C° 0 mm 2 mps 708 mmHg 90%
    22:00 +13°C° 0 mm 1 mps 708 mmHg 93%
    23:00 +13°C° 0 mm 1 mps 708 mmHg 93%

    25 May, Friday

    Time Temperature Precipitation Wind Pressure Humidity
    00:00 +12°C° 0 mm 1 mps 708 mmHg 94%
    01:00 +12°C° 0 mm 1 mps 708 mmHg 94%
    02:00 +11°C° 0 mm 1 mps 708 mmHg 95%
    03:00 +11°C° 0 mm 1 mps 708 mmHg 95%
    04:00 +11°C° 0 mm 1 mps 708 mmHg 95%
    05:00 +12°C° 0 mm 1 mps 708 mmHg 90%
    06:00 +14°C° 0 mm 2 mps 709 mmHg 86%
    07:00 +16°C° 0 mm 2 mps 709 mmHg 81%
    08:00 +17°C° 0 mm 3 mps 709 mmHg 73%
    09:00 +19°C° 0 mm 3 mps 709 mmHg 66%
    10:00 +20°C° 0 mm 4 mps 710 mmHg 58%
    11:00 +21°C° 0 mm 4 mps 709 mmHg 56%
    12:00 +21°C° 0 mm 4 mps 709 mmHg 54%
    13:00 +22°C° 0 mm 3 mps 709 mmHg 52%
    14:00 +22°C° 0.1 mm 3 mps 709 mmHg 56%
    15:00 +21°C° 0.1 mm 3 mps 709 mmHg 59%
    16:00 +21°C° 0.1 mm 3 mps 708 mmHg 62%
    17:00 +19°C° 0.2 mm 3 mps 708 mmHg 70%
    18:00 +17°C° 0.2 mm 2 mps 708 mmHg 78%
    19:00 +16°C° 0.2 mm 2 mps 708 mmHg 86%
    20:00 +15°C° 0 mm 1 mps 708 mmHg 89%
    21:00 +14°C° 0 mm 1 mps 708 mmHg 91%
    22:00 +12°C° 0 mm 1 mps 708 mmHg 93%
    23:00 +12°C° 0 mm 1 mps 708 mmHg 93%

    26 May, Saturday

    Time Temperature Precipitation Wind Pressure Humidity
    00:00 +12°C° 0 mm 1 mps 708 mmHg 94%
    01:00 +11°C° 0 mm 1 mps 708 mmHg 94%
    02:00 +11°C° 0 mm 1 mps 708 mmHg 94%
    03:00 +11°C° 0 mm 1 mps 708 mmHg 95%
    04:00 +11°C° 0 mm 1 mps 708 mmHg 95%
    05:00 +13°C° 0 mm 1 mps 709 mmHg 91%
    06:00 +14°C° 0 mm 1 mps 709 mmHg 87%
    07:00 +16°C° 0 mm 1 mps 709 mmHg 83%
    08:00 +19°C° 0 mm 1 mps 710 mmHg 75%
    09:00 +20°C° 0 mm 2 mps 710 mmHg 67%
    10:00 +23°C° 0 mm 2 mps 710 mmHg 59%
    11:00 +23°C° 0.4 mm 2 mps 710 mmHg 60%
    12:00 +23°C° 0.4 mm 2 mps 710 mmHg 61%
    13:00 +23°C° 0.4 mm 2 mps 710 mmHg 63%
    14:00 +23°C° 0.6 mm 2 mps 710 mmHg 64%
    15:00 +23°C° 0.6 mm 2 mps 710 mmHg 65%
    16:00 +23°C° 0.6 mm 2 mps 709 mmHg 66%
    17:00 +20°C° 0.3 mm 2 mps 709 mmHg 73%
    18:00 +18°C° 0.3 mm 2 mps 709 mmHg 80%
    19:00 +18°C° 0.3 mm 1 mps 709 mmHg 87%
    20:00 +16°C° 0.2 mm 1 mps 709 mmHg 89%
    21:00 +15°C° 0.2 mm 1 mps 709 mmHg 91%
    22:00 +13°C° 0.2 mm 0 mps 709 mmHg 93%
    23:00 +12°C° 0.1 mm 0 mps 708 mmHg 93%

    27 May, Sunday

    Time Temperature Precipitation Wind Pressure Humidity
    00:00 +12°C° 0.1 mm 0 mps 708 mmHg 93%
    01:00 +12°C° 0.1 mm 0 mps 708 mmHg 93%
    02:00 +11°C° 0 mm 0 mps 708 mmHg 93%
    03:00 +11°C° 0 mm 0 mps 708 mmHg 94%
    04:00 +11°C° 0 mm 0 mps 708 mmHg 94%
    05:00 +13°C° 0 mm 0 mps 708 mmHg 90%
    06:00 +16°C° 0 mm 1 mps 709 mmHg 86%
    07:00 +18°C° 0 mm 1 mps 709 mmHg 82%
    08:00 +20°C° 0 mm 1 mps 709 mmHg 75%
    09:00 +21°C° 0 mm 1 mps 710 mmHg 69%
    10:00 +23°C° 0 mm 1 mps 710 mmHg 62%
    11:00 +23°C° 0.5 mm 2 mps 710 mmHg 64%
    12:00 +23°C° 0.5 mm 2 mps 709 mmHg 67%
    13:00 +21°C° 0.5 mm 2 mps 709 mmHg 70%
    14:00 +21°C° 0.8 mm 2 mps 709 mmHg 71%
    15:00 +21°C° 0.8 mm 2 mps 709 mmHg 72%
    16:00 +21°C° 0.8 mm 2 mps 709 mmHg 74%
    17:00 +20°C° 0.5 mm 1 mps 709 mmHg 79%
    18:00 +19°C° 0.5 mm 1 mps 709 mmHg 84%
    19:00 +18°C° 0.5 mm 1 mps 708 mmHg 89%
    20:00 +16°C° 0.2 mm 1 mps 708 mmHg 91%
    21:00 +15°C° 0.2 mm 1 mps 708 mmHg 92%
    22:00 +14°C° 0.2 mm 1 mps 708 mmHg 94%
    23:00 +14°C° 0 mm 1 mps 708 mmHg 94%
    Show more